User: anonymous   Login
Location: Igon
(43.1667°N, 0.2333°W)
Time: 20:31:29
(UTC+00:00)
Language:

SJ-11-02 - Orbit

View from above orbital plane
View from above orbital plane
View from above satellite
View from above satellite

Ground track
Ground track

The orbit data is extracted from the following two-line orbital elements,

1 37765U 11039A   21172.56837531  .00000052  00000-0  20629-4 0  9993
2 37765  98.4829   8.9297 0011124 173.7349 251.6416 14.61653281527745
Epoch (UTC): 21 June 2021 13:38:27
Eccentricity: 0.0011124
inclination: 98.4829°
perigee height: 680 km
apogee height: 696 km
right ascension of ascending node: 8.9297°
argument of perigee: 173.7349°
revolutions per day: 14.61653281
mean anomaly at epoch: 251.6416°
orbit number at epoch: 52774

The dashed part of the orbit path shows where the satellite is in the earth's shadow,  

DLR